[[{"header":{"parameterUnit":"m.s-1","parameterCategory":1,"la1":30.2991,"la2":30.254,"lo1":-89.0895,"lo2":-89.0444,"dy":0.0017,"dx":0.0017,"nx":28,"ny":28,"refTime":"2024-10-04T09:00:00:Z","depth":0,"parameterNumber":2,"parameterNumberName":"U-component_of_WINDS"},"data":[0,0,0,0,0,0,0,0,0,0,0,0,0,0,0,0,0,0,0,0,0,0,0,0,0,0,0,0,0,0,0,0,0,0,0,0,0,0,0,0,0,0,0,0,0,0,0,0,0,0,0,0,0,0,0,0,0,0,-4.9117,-4.9117,0,-4.9104,-4.9104,-4.9104,-4.8978,-4.8975,-4.8971,-4.8968,-4.8956,-4.8958,-4.8961,0,0,0,0,0,0,0,0,0,0,0,0,0,-4.9035,-4.9037,-4.9117,-4.9117,-4.9117,-4.9104,-4.9104,-4.9104,-4.8978,-4.8974,-4.8971,-4.8967,-4.8955,-4.8958,-4.8961,0,0,0,0,0,0,0,0,0,0,0,0,0,-4.9051,-4.9038,-4.9117,-4.9053,-4.9047,-4.9104,-4.9104,-4.9104,-4.8979,-4.8974,-4.897,-4.8965,-4.8954,-4.8958,-4.8962,-4.908,0,0,-4.8973,-4.8975,0,0,0,0,0,0,0,0,-4.905,-4.9054,-4.9062,-4.9057,-4.9051,-4.9038,-4.907,-4.9096,-4.898,-4.9005,-4.8968,-4.8963,-4.8987,-4.8988,-4.8996,-4.9079,-4.9079,-4.8974,-4.8976,-4.8978,-4.8979,0,0,0,0,0,0,0,-4.9049,-4.9054,-4.9112,-4.9063,-4.9056,-4.9025,-4.9022,-4.9074,-4.9023,-4.9002,-4.8993,-4.8993,-4.8983,-4.8992,-4.8994,-4.9079,-4.8974,-4.8977,-4.898,-4.8981,-4.9259,-4.9264,0,0,0,0,0,0,-4.9057,-4.9054,-4.9112,-4.9112,-4.9039,-4.903,-4.9027,-4.9047,-4.9022,-4.9013,-4.8997,-4.8987,-4.8988,-4.899,-4.8994,-4.9131,-4.8978,-4.8981,-4.8984,-4.9254,-4.926,-4.9266,0,0,0,0,0,0,-4.9056,-4.9063,-4.9113,-4.908,-4.9084,-4.9036,-4.906,-4.9049,-4.9058,-4.9018,-4.9008,-4.9016,-4.8984,-4.8988,-4.9059,-4.9129,-4.8983,-4.8987,-4.9248,-4.9256,-4.9263,-4.9407,0,0,0,0,0,0,-4.9054,-4.9064,-4.9108,-4.9082,-4.9087,-4.918,-4.9064,-4.9052,-4.9065,-4.9052,-4.9033,-4.9025,-4.8981,-4.9054,-4.9063,-4.9132,-4.899,-4.9242,-4.9252,-4.9261,-4.9396,-4.9419,-4.9438,0,0,0,0,0,-4.9051,-4.9149,-4.9111,-4.9119,-4.9141,-4.9184,-4.9186,-4.9133,-4.9071,-4.9116,-4.909,-4.9026,-4.912,-4.9063,-4.9072,-4.9142,-4.9237,-4.9249,-4.926,-4.9387,-4.9414,-4.9438,0,0,0,0,0,0,-4.9185,-4.9145,-4.9102,-4.9194,-4.9193,-4.9162,-4.9217,-4.9163,-4.918,-4.9167,-4.91,-4.9097,-4.9179,-4.9167,-4.9105,-4.9256,-4.9168,-4.9181,-4.9261,-4.9287,-4.9307,-4.9309,-4.8993,0,0,0,0,0,-4.9225,-4.9263,-4.9226,-4.9311,-4.9312,-4.9265,-4.9282,-4.924,-4.9237,-4.9236,-4.9215,-4.9215,-4.9243,-4.9264,-4.9289,-4.9393,-4.9388,-4.9447,-4.9468,-4.9485,-4.9498,-4.9554,-4.9579,-4.9303,-4.9303,-4.9303,0,0,-4.9308,-4.9291,-4.9319,-4.9337,-4.9331,-4.9373,-4.9266,-4.9313,-4.9343,-4.9243,-4.931,-4.9295,-4.9289,-4.9378,-4.9416,-4.9371,-4.9573,-4.95,-4.9514,-4.9517,-4.9568,-4.9594,-4.9618,-4.9311,-4.931,-4.9308,0,0,-4.9481,-4.9472,-4.9542,-4.9539,-4.9532,-4.9499,-4.9517,-4.9494,-4.948,-4.9545,-4.9471,-4.9506,-4.9557,-4.9557,-4.9563,-4.9737,-4.9679,-4.9747,-4.9857,-4.9912,-4.9934,-4.9953,-5.0016,-5.0039,-4.976,-4.976,-4.976,0,-4.9586,-4.9645,-4.9585,-4.9638,-4.9648,-4.9559,-4.963,-4.963,-4.9632,-4.9641,-4.959,-4.9653,-4.9643,-4.9731,-4.9774,-4.9782,-4.98,-4.9749,-4.9936,-4.9954,-4.9971,-5.003,-5.0054,-4.9768,-4.9767,-4.9766,-4.9766,0,-4.9774,-4.9816,-4.9874,-4.9878,-4.9894,-4.9956,-4.9906,-4.993,-4.9888,-4.9861,-4.993,-4.9914,-4.9935,-4.9952,-4.9911,-5.0035,-5.0007,-4.9947,-4.9857,-5.0007,-5.0061,-5.0083,-4.978,-4.9777,-4.9775,-4.9773,0,0,-5.0032,-5.0002,-5.0024,-5.0025,-5.0011,-5.0042,-5.01,-5.012,-5.0142,-5.0146,-5.0194,-5.024,-5.0184,-5.0191,-5.0149,-5.0197,-5.0337,-5.0131,-5.013,-5.0171,-5.0474,-5.052,-5.0548,-5.0298,-5.0302,-5.0306,-5.0475,0,-5.02,-5.0297,-5.0245,-5.0349,-5.0387,-5.0303,-5.0354,-5.0351,-5.0328,-5.0357,-5.0331,-5.0365,-5.0288,-5.0292,-5.0336,-5.0311,-5.0397,-5.0298,-5.0343,-5.0345,-5.0348,-5.0576,-5.0625,-5.0785,-5.0496,-5.0499,-5.0502,0,-5.0408,-5.0421,-5.053,-5.0509,-5.0523,-5.0569,-5.0583,-5.0612,-5.0607,-5.0587,-5.0596,-5.0542,-5.0598,-5.0509,-5.0585,-5.0519,-5.0534,-5.0524,-5.0529,-5.0532,-5.0434,-5.0586,-5.0835,-5.086,-5.0535,-5.0532,-5.053,0,-5.0587,-5.0631,-5.0702,-5.0705,-5.0682,-5.0717,-5.0709,-5.0699,-5.0715,-5.0727,-5.0736,-5.0755,-5.0766,-5.0782,-5.0735,-5.0674,-5.0819,-5.0725,-5.0804,-5.0806,-5.0839,-5.0838,-5.1095,-5.0848,-5.0847,-5.0847,-5.0846,0,-5.078,-5.085,-5.0782,-5.0826,-5.0902,-5.0841,-5.0918,-5.0901,-5.0893,-5.0933,-5.086,-5.0899,-5.0834,-5.0867,-5.083,-5.09,-5.0905,-5.0891,-5.088,-5.0898,-5.09,-5.0908,-5.0896,-5.0853,-5.0852,-5.0851,-5.0849,0,-5.0993,-5.095,-5.1022,-5.0994,-5.0989,-5.1046,-5.1022,-5.1062,-5.1033,-5.1084,-5.1092,-5.1048,-5.1083,-5.1037,-5.1067,-5.1042,-5.1138,-5.111,-5.114,-5.1132,-5.1215,-5.1208,-5.1487,-5.1521,-5.1251,-5.1253,-5.1256,0,-5.112,-5.1172,-5.1149,-5.117,-5.1167,-5.1201,-5.1217,-5.1159,-5.1178,-5.1176,-5.1217,-5.1245,-5.1264,-5.1323,-5.1294,-5.1316,-5.1289,-5.1385,-5.1292,-5.1308,-5.1292,-5.129,-5.1296,-5.1405,-5.1408,-5.1411,-5.1413,0,-5.135,-5.1326,-5.1351,-5.1369,-5.1389,-5.14,-5.1406,-5.1427,-5.1367,-5.1392,-5.1426,-5.1441,-5.1471,-5.1501,-5.1516,-5.1507,-5.1451,-5.1442,-5.1462,-5.1481,-5.1497,-5.149,-5.1193,-5.1436,-5.1434,-5.1432,-5.1431,-5.143,-5.1524,-5.1567,-5.1558,-5.1588,-5.1586,-5.1593,-5.1629,-5.1606,-5.1633,-5.1653,-5.1617,-5.1661,-5.1654,-5.1668,-5.1667,-5.17,-5.1659,-5.1687,-5.1694,-5.1703,-5.1716,-5.149,-5.1703,-5.1702,-5.1701,-5.1701,-5.17,0,-5.1751,-5.1742,-5.177,-5.178,-5.1804,-5.1748,-5.1752,-5.1776,-5.1815,-5.1814,-5.1834,-5.1874,-5.1902,-5.1875,-5.1898,-5.193,-5.1905,-5.1938,-5.1936,-5.1935,-5.1751,-5.1732,-5.1958,-5.1958,-5.1958,-5.1958,-5.1958,-5.1958,-5.1873,-5.1942,-5.1917,-5.1985,-5.1974,-5.2016,-5.2023,-5.203,-5.2029,-5.2076,-5.2099,-5.2081,-5.207,-5.2091,-5.2115,-5.2106,-5.2118,-5.2161,-5.2144,-5.1973,-5.1948,-5.1924,-5.1906,-5.2164,-5.2164,-5.2325,-5.2326,-5.2327]},{"header":{"parameterUnit":"m.s-1","parameterCategory":1,"la1":30.2991,"la2":30.254,"lo1":-89.0895,"lo2":-89.0444,"dy":0.0017,"dx":0.0017,"nx":28,"ny":28,"refTime":"2024-10-04T09:00:00:Z","depth":0,"parameterNumber":3,"parameterNumberName":"V-component_of_WINDS"},"data":[0,0,0,0,0,0,0,0,0,0,0,0,0,0,0,0,0,0,0,0,0,0,0,0,0,0,0,0,0,0,0,0,0,0,0,0,0,0,0,0,0,0,0,0,0,0,0,0,0,0,0,0,0,0,0,0,0,0,-2.5429,-2.543,0,-2.5464,-2.5464,-2.5465,-2.5438,-2.5437,-2.5435,-2.5434,-2.5469,-2.5471,-2.5473,0,0,0,0,0,0,0,0,0,0,0,0,0,-2.5337,-2.5339,-2.5429,-2.543,-2.543,-2.5464,-2.5464,-2.5465,-2.5438,-2.5437,-2.5435,-2.5434,-2.5468,-2.547,-2.5473,0,0,0,0,0,0,0,0,0,0,0,0,0,-2.5375,-2.534,-2.5429,-2.5421,-2.542,-2.5464,-2.5464,-2.5465,-2.5438,-2.5437,-2.5435,-2.5433,-2.5467,-2.547,-2.5473,-2.5526,0,0,-2.5482,-2.5484,0,0,0,0,0,0,0,0,-2.5373,-2.5379,-2.5422,-2.5421,-2.5421,-2.5445,-2.5444,-2.5485,-2.5439,-2.5431,-2.5434,-2.5432,-2.5462,-2.5465,-2.5476,-2.5528,-2.5529,-2.5483,-2.5484,-2.5486,-2.5486,0,0,0,0,0,0,0,-2.5371,-2.5377,-2.5443,-2.5422,-2.5422,-2.5415,-2.5418,-2.5452,-2.5456,-2.5432,-2.543,-2.5435,-2.5462,-2.5473,-2.5476,-2.553,-2.5482,-2.5485,-2.5487,-2.5488,-2.5625,-2.5626,0,0,0,0,0,0,-2.5369,-2.5375,-2.5442,-2.5444,-2.5392,-2.5418,-2.5421,-2.5439,-2.5456,-2.5456,-2.5436,-2.5433,-2.5469,-2.5473,-2.5477,-2.5539,-2.5486,-2.5488,-2.549,-2.5623,-2.5625,-2.5627,0,0,0,0,0,0,-2.5367,-2.5375,-2.544,-2.5409,-2.5417,-2.5421,-2.5441,-2.544,-2.5452,-2.5459,-2.5459,-2.5447,-2.5467,-2.5473,-2.5514,-2.554,-2.549,-2.5492,-2.5621,-2.5623,-2.5626,-2.5663,0,0,0,0,0,0,-2.5365,-2.5375,-2.5396,-2.541,-2.5418,-2.5477,-2.5442,-2.5442,-2.5457,-2.5454,-2.5469,-2.547,-2.5466,-2.5509,-2.5517,-2.5543,-2.5495,-2.5618,-2.5622,-2.5625,-2.566,-2.5667,-2.5673,0,0,0,0,0,-2.5361,-2.5405,-2.5397,-2.5405,-2.5445,-2.5479,-2.5484,-2.5479,-2.5459,-2.548,-2.5484,-2.5469,-2.5536,-2.5514,-2.5522,-2.5549,-2.5617,-2.5621,-2.5625,-2.5657,-2.5666,-2.5673,0,0,0,0,0,0,-2.5394,-2.5407,-2.5398,-2.5447,-2.5462,-2.5474,-2.55,-2.5489,-2.5509,-2.5505,-2.5499,-2.5502,-2.5544,-2.5551,-2.5526,-2.56,-2.5573,-2.5579,-2.5594,-2.5603,-2.561,-2.5607,-2.5497,0,0,0,0,0,-2.5407,-2.5434,-2.5443,-2.5486,-2.5494,-2.5496,-2.551,-2.5505,-2.552,-2.5526,-2.5534,-2.5548,-2.5572,-2.5588,-2.561,-2.5661,-2.5663,-2.5683,-2.569,-2.5696,-2.5701,-2.5726,-2.5734,-2.564,-2.564,-2.564,0,0,-2.5434,-2.5444,-2.5462,-2.5493,-2.5504,-2.5531,-2.5501,-2.5532,-2.5551,-2.5531,-2.5569,-2.5575,-2.5591,-2.5636,-2.5656,-2.5642,-2.5727,-2.5701,-2.5705,-2.5707,-2.5731,-2.574,-2.5748,-2.5643,-2.5643,-2.5642,0,0,-2.5497,-2.5508,-2.5544,-2.5555,-2.5572,-2.5572,-2.5581,-2.5594,-2.5597,-2.5636,-2.562,-2.5643,-2.5685,-2.5696,-2.5708,-2.5773,-2.576,-2.578,-2.5815,-2.584,-2.5847,-2.5854,-2.5875,-2.5883,-2.5785,-2.5785,-2.5786,0,-2.5528,-2.5569,-2.5564,-2.5595,-2.5608,-2.5591,-2.5626,-2.5637,-2.566,-2.5669,-2.5654,-2.5705,-2.5714,-2.5761,-2.5777,-2.5787,-2.5795,-2.5778,-2.5847,-2.5853,-2.5859,-2.588,-2.5888,-2.5788,-2.5788,-2.5787,-2.5787,0,-2.5606,-2.5634,-2.5661,-2.5683,-2.57,-2.5733,-2.5732,-2.5749,-2.5742,-2.5744,-2.5782,-2.5793,-2.5816,-2.5827,-2.5822,-2.5873,-2.5863,-2.5848,-2.582,-2.587,-2.589,-2.5898,-2.5791,-2.579,-2.579,-2.5789,0,0,-2.5691,-2.5709,-2.5718,-2.5728,-2.5744,-2.5765,-2.5797,-2.582,-2.5834,-2.585,-2.5876,-2.5911,-2.5896,-2.5908,-2.5903,-2.5925,-2.5974,-2.5906,-2.5906,-2.5917,-2.6029,-2.604,-2.6049,-2.5966,-2.5967,-2.5968,-2.6027,0,-2.5753,-2.5809,-2.5804,-2.5856,-2.5881,-2.5864,-2.5891,-2.5904,-2.5906,-2.5927,-2.5929,-2.5954,-2.5933,-2.594,-2.5961,-2.5964,-2.5996,-2.5959,-2.5988,-2.5989,-2.5984,-2.606,-2.6072,-2.6127,-2.6035,-2.6036,-2.6037,0,-2.5834,-2.5852,-2.5907,-2.5917,-2.5928,-2.5953,-2.5972,-2.5993,-2.6006,-2.6006,-2.6019,-2.601,-2.6041,-2.6013,-2.6054,-2.6029,-2.604,-2.6043,-2.6045,-2.6047,-2.6015,-2.6062,-2.6145,-2.6153,-2.6049,-2.6048,-2.6047,0,-2.5888,-2.5927,-2.5964,-2.5972,-2.5986,-2.6004,-2.601,-2.6022,-2.6035,-2.6052,-2.606,-2.6081,-2.6092,-2.6108,-2.6104,-2.6084,-2.6145,-2.6117,-2.6145,-2.6145,-2.6158,-2.6157,-2.6242,-2.6167,-2.6167,-2.6167,-2.6167,0,-2.5958,-2.5992,-2.5988,-2.6011,-2.6047,-2.6041,-2.6077,-2.6082,-2.6092,-2.6114,-2.6101,-2.6122,-2.6116,-2.6137,-2.6134,-2.6167,-2.6173,-2.6173,-2.6171,-2.6173,-2.6173,-2.618,-2.6176,-2.6169,-2.6169,-2.6168,-2.6168,0,-2.6025,-2.6024,-2.6063,-2.6073,-2.6076,-2.6102,-2.611,-2.6131,-2.6132,-2.616,-2.6166,-2.6167,-2.6191,-2.6188,-2.6215,-2.6213,-2.6254,-2.6249,-2.6249,-2.6248,-2.6275,-2.6272,-2.6367,-2.6378,-2.6297,-2.6298,-2.6298,0,-2.6069,-2.6094,-2.6106,-2.612,-2.6128,-2.6151,-2.6164,-2.6159,-2.6173,-2.6189,-2.6207,-2.6229,-2.6247,-2.6285,-2.6287,-2.6307,-2.6301,-2.6333,-2.6304,-2.6305,-2.63,-2.6298,-2.63,-2.6338,-2.6339,-2.634,-2.6341,0,-2.6147,-2.6145,-2.6165,-2.6184,-2.62,-2.6216,-2.6229,-2.6241,-2.6237,-2.6253,-2.6277,-2.629,-2.6317,-2.6338,-2.6357,-2.6362,-2.635,-2.635,-2.6357,-2.6359,-2.6358,-2.6357,-2.6264,-2.6348,-2.6347,-2.6346,-2.6346,-2.6346,-2.6203,-2.6223,-2.6235,-2.6257,-2.6266,-2.6279,-2.6298,-2.6301,-2.6321,-2.6342,-2.6337,-2.6363,-2.6374,-2.6397,-2.6405,-2.6425,-2.6413,-2.6424,-2.6426,-2.6429,-2.6431,-2.6355,-2.6428,-2.6428,-2.6428,-2.6428,-2.6428,0,-2.6278,-2.6284,-2.6305,-2.6324,-2.6341,-2.6328,-2.6342,-2.6357,-2.638,-2.6392,-2.6408,-2.6435,-2.6455,-2.6459,-2.6478,-2.6493,-2.6488,-2.6498,-2.6497,-2.6498,-2.6441,-2.6433,-2.6502,-2.6502,-2.6502,-2.6502,-2.6502,-2.6502,-2.632,-2.6354,-2.6353,-2.6391,-2.6397,-2.6422,-2.6431,-2.6442,-2.645,-2.648,-2.6497,-2.65,-2.6507,-2.6527,-2.6545,-2.6545,-2.6552,-2.6564,-2.6563,-2.651,-2.6502,-2.6495,-2.6486,-2.6566,-2.6566,-2.6617,-2.6618,-2.6618]}]]